Wilmington, NC

1:06 PM EDT on July 28, 2017 (GMT -0400)
Wilmington International

Weather History for KILM - November, 2012

Change the Weather History Date:

Sunday, November 4, 2012

  Actual Average Record
Temperature  
Mean Temperature 60 °F 60 °F  
Max Temperature 78 °F 71 °F 84 °F (1977)
Min Temperature 42 °F 49 °F 29 °F (1954)
Degree Days  
Heating Degree Days 5 6  
Month to date heating degree days 47 24  
Since 1 July heating degree days 135 121  
Cooling Degree Days 0 1  
Month to date cooling degree days 0 4  
Year to date cooling degree days 2169 2018  
Growing Degree Days 10 (Base 50)    
Moisture  
Dew Point 49 °F    
Average Humidity 71    
Maximum Humidity 96    
Minimum Humidity 46    
Precipitation  
Precipitation 0.21 in 0.10 in 1.95 in (1871)
Month to date precipitation 0.21 0.41  
Year to date precipitation 41.64 51.11  
Snow  
Snow 0.00 in 0.00 in - ()
Month to date snowfall 0.0 0.0  
Since 1 July snowfall 0.0 0.0  
Since 1 September snowfall 0.0  
Snow Depth 0.00 in    
Sea Level Pressure  
Sea Level Pressure 29.98 in    
Wind  
Wind Speed 7 mph (North)    
Max Wind Speed 18 mph    
Max Gust Speed 23 mph    
Visibility 9 miles    
Events Rain , Thunderstorm    
T = Trace of Precipitation, MM = Missing Value Source: NWS Daily Summary

Daily Weather History Graph

Daily Weather History Graph

Search for Another Location

Airport or City:

Trip Planner

Search our weather history database for the weather conditions in past years. The results will help you decide how hot, cold, wet, or windy it might be!

Date:

Astronomy

Nov. 04, 2012 Rise Set
Actual Time 6:34 AM EST 5:15 PM EST
Civil Twilight 6:08 AM EST 5:41 PM EST
Nautical Twilight 5:38 AM EST 6:11 PM EST
Astronomical Twilight 5:09 AM EST 6:40 PM EST
Moon 9:53 PM EST (11/4) 11:14 AM EST (11/4)
Length of Visible Light 11h 32m
Length of Day
10h 40m
Waning Gibbous, 72% of the Moon is Illuminated
Nov 4
Waning Gibbous
Nov 6
Last Quarter
Nov 13
New
Nov 20
First Quarter
Nov 28
Full

Hourly Weather History & Observations

Time (EST) Temp. Windchill Dew Point Humidity Pressure Visibility Wind Dir Wind Speed Gust Speed Precip Events Conditions
12:53 AM 43.0 °F - 41.0 °F 93% 30.07 in 7.0 mi Calm Calm - N/A   Clear
1:53 AM 43.0 °F - 39.9 °F 89% 30.07 in 10.0 mi Calm Calm - N/A   Clear
1:53 AM 42.1 °F 40.2 °F 39.0 °F 89% 30.08 in 10.0 mi NE 3.5 mph - N/A   Clear
2:53 AM 43.0 °F - 41.0 °F 93% 30.06 in 9.0 mi Calm Calm - N/A   Clear
3:53 AM 43.0 °F - 41.0 °F 93% 30.04 in 8.0 mi Calm Calm - N/A   Clear
4:53 AM 44.1 °F - 41.0 °F 89% 30.03 in 10.0 mi Calm Calm - N/A   Scattered Clouds
5:53 AM 45.0 °F 43.5 °F 42.1 °F 90% 30.01 in 10.0 mi ESE 3.5 mph - N/A   Clear
6:53 AM 50.0 °F - 46.0 °F 86% 30.00 in 10.0 mi East 3.5 mph - N/A   Partly Cloudy
7:53 AM 57.9 °F - 52.0 °F 81% 29.99 in 10.0 mi Calm Calm - N/A   Clear
8:53 AM 69.1 °F - 60.1 °F 73% 29.97 in 10.0 mi South 8.1 mph - N/A   Clear
9:53 AM 73.0 °F - 60.1 °F 64% 29.95 in 10.0 mi SW 11.5 mph 18.4 mph N/A   Clear
10:53 AM 75.0 °F - 57.9 °F 55% 29.94 in 10.0 mi West 11.5 mph - N/A   Clear
11:53 AM 75.9 °F - 55.9 °F 50% 29.92 in 10.0 mi West 13.8 mph - N/A   Clear
12:53 PM 75.9 °F - 55.0 °F 48% 29.90 in 10.0 mi West 11.5 mph - N/A   Clear
1:53 PM 75.0 °F - 53.1 °F 46% 29.90 in 10.0 mi West 13.8 mph - N/A   Clear
2:53 PM 73.0 °F - 55.9 °F 55% 29.91 in 10.0 mi NW 10.4 mph - N/A   Clear
3:53 PM 71.1 °F - 54.0 °F 55% 29.93 in 10.0 mi NNW 11.5 mph - N/A   Clear
4:53 PM 64.9 °F - 52.0 °F 63% 29.93 in 10.0 mi NNE 8.1 mph - N/A   Clear
5:53 PM 61.0 °F - 50.0 °F 67% 29.94 in 10.0 mi NE 10.4 mph - N/A   Partly Cloudy
6:53 PM 57.0 °F - 46.9 °F 69% 29.96 in 10.0 mi NNE 9.2 mph - N/A   Partly Cloudy
7:47 PM 55.4 °F - 46.4 °F 72% 29.99 in 10.0 mi NE 5.8 mph - N/A   Mostly Cloudy
7:53 PM 55.0 °F - 46.0 °F 72% 30.00 in 10.0 mi NNW 8.1 mph - N/A Thunderstorm Overcast
8:16 PM 51.8 °F - 48.2 °F 88% 29.94 in 10.0 mi ENE 12.7 mph - 0.01 in Rain Light Rain
8:53 PM 50.0 °F - 46.0 °F 86% 29.97 in 10.0 mi NNE 8.1 mph - 0.01 in   Mostly Cloudy
9:49 PM 48.2 °F - 46.4 °F 93% 30.03 in 2.0 mi NNW 9.2 mph - 0.12 in Rain Rain
9:53 PM 48.9 °F - 46.9 °F 93% 30.01 in 3.0 mi North 6.9 mph - 0.13 in Rain Rain
10:53 PM 48.0 °F - 45.0 °F 89% 29.97 in 10.0 mi North 8.1 mph - 0.07 in   Mostly Cloudy